DW9996 Weather Reports


time (UTC)temp
F
wind
direction
speed
knots
gust
knots
rain 1hr
in
rain 24hr
in
rain mn
in
humidity
%
barometer
mb
20260509224543 65 267 0.0 5.2 0.00 0.00 0.00 38 1013.6
20260509223145 65 213 2.6 7.0 0.00 0.00 0.00 39 1013.7
20260509221542 65 321 0.0 4.3 0.00 0.00 0.00 36 1013.5
20260509220041 65 236 3.5 7.8 0.00 0.00 0.00 36 1013.7
20260509214540 65 180 1.7 4.3 0.00 0.00 0.00 36 1013.8
20260509213039 65 194 1.7 6.1 0.00 0.00 0.00 36 1013.8
20260509211545 64 125 2.6 5.2 0.00 0.00 0.00 36 1014.0
20260509210040 64 20 1.7 4.3 0.00 0.00 0.00 35 1013.9
20260509204536 64 257 1.7 7.0 0.00 0.00 0.00 35 1013.9
20260509203036 64 259 2.6 6.1 0.00 0.00 0.00 35 1013.8
20260509201535 64 279 2.6 5.2 0.00 0.00 0.00 35 1013.7
20260509200038 63 72 3.5 7.0 0.00 0.00 0.00 35 1013.7
20260509194535 63 67 1.7 6.1 0.00 0.00 0.00 35 1013.8
20260509193033 63 236 1.7 5.2 0.00 0.00 0.00 35 1013.9
20260509191532 63 333 2.6 6.1 0.00 0.00 0.00 36 1013.8
20260509190031 63 315 0.0 3.5 0.00 0.00 0.00 36 1013.8
20260509184538 63 268 2.6 4.3 0.00 0.00 0.00 36 1013.7
20260509183030 63 345 2.6 6.1 0.00 0.00 0.00 35 1013.7
20260509181527 63 244 0.0 6.1 0.00 0.00 0.00 36 1013.5
20260509180025 63 275 0.9 6.1 0.00 0.00 0.00 36 1013.4
20260509174532 63 278 2.6 7.0 0.00 0.00 0.00 37 1013.4
20260509173022 63 15 1.7 5.2 0.00 0.00 0.00 37 1013.3
20260509171521 63 17 0.0 5.2 0.00 0.00 0.00 37 1013.2
20260509170020 62 297 2.6 7.0 0.00 0.00 0.00 37 1013.2
20260509164519 62 325 2.6 6.1 0.00 0.00 0.00 38 1013.2
20260509163027 61 243 2.6 7.8 0.00 0.00 0.00 38 1013.1
20260509161518 62 298 4.3 7.0 0.00 0.00 0.00 38 1013.0
20260509160015 62 246 2.6 5.2 0.00 0.00 0.00 40 1012.8
20260509154513 61 317 0.9 5.2 0.00 0.00 0.00 39 1012.7
20260509153009 60 355 4.3 8.7 0.00 0.00 0.00 43 1012.6
20260509151506 58 355 1.7 7.8 0.00 0.00 0.00 49 1012.6
20260509150002 56 319 1.7 3.5 0.00 0.00 0.00 52 1012.6
20260509144604 55 282 0.9 4.3 0.00 0.00 0.00 55 1012.5
20260509143100 53 305 1.7 4.3 0.00 0.00 0.00 57 1012.5
20260509141608 52 296 1.7 4.3 0.00 0.00 0.00 58 1012.4
20260509140103 51 295 1.7 4.3 0.00 0.00 0.00 59 1012.3
20260509134557 51 300 1.7 4.3 0.00 0.00 0.00 60 1012.2
20260509133055 50 308 1.7 4.3 0.00 0.00 0.00 60 1012.1
20260509131553 50 348 0.9 4.3 0.00 0.00 0.00 60 1011.9
20260509130051 49 325 1.7 4.3 0.00 0.00 0.00 60 1011.9
20260509124557 49 347 0.9 2.6 0.00 0.00 0.00 60 1011.6
20260509123055 49 42 0.9 3.5 0.00 0.00 0.00 60 1011.3
20260509121546 49 241 1.7 5.2 0.00 0.00 0.00 59 1011.3
20260509120043 49 11 2.6 5.2 0.00 0.00 0.00 58 1011.0
20260509114543 49 19 2.6 7.8 0.00 0.00 0.00 58 1010.8
20260509113050 49 5 4.3 8.7 0.00 0.00 0.00 57 1010.7
20260509111545 50 26 3.5 6.1 0.00 0.00 0.00 57 1010.3
20260509110033 50 17 3.5 7.8 0.00 0.00 0.00 57 1010.3
20260509104531 50 360 2.6 6.1 0.00 0.00 0.00 56 1010.3
20260509103029 51 31 3.5 8.7 0.00 0.00 0.00 55 1010.1
20260509101530 51 32 5.2 8.7 0.00 0.00 0.00 55 1009.9
20260509100023 52 11 4.3 6.1 0.00 0.00 0.00 55 1009.7
20260509094523 52 17 3.5 6.1 0.00 0.00 0.00 55 1009.7
20260509093018 51 360 2.6 4.3 0.00 0.00 0.00 58 1009.4
20260509091515 51 333 0.0 1.7 0.00 0.00 0.00 58 1009.4
20260509090011 52 360 1.7 4.3 0.00 0.00 0.00 55 1009.4
20260509084509 53 360 2.6 4.3 0.00 0.00 0.00 53 1009.2
20260509083008 54 111 0.9 1.7 0.00 0.00 0.00 54 1009.0
20260509081506 53 134 0.0 0.0 0.00 0.00 0.00 55 1008.9
20260509080001 54 135 0.9 2.6 0.00 0.00 0.00 54 1008.8
20260509074602 55 111 3.5 7.0 0.00 0.00 0.00 52 1008.7
20260509073106 55 103 3.5 7.0 0.00 0.00 0.00 51 1008.6
20260509071554 55 80 6.1 9.6 0.00 0.00 0.00 50 1008.4
20260509070051 55 80 5.2 7.8 0.00 0.00 0.00 50 1008.1
20260509064547 56 69 3.5 8.7 0.00 0.00 0.00 49 1008.0
20260509063043 56 62 4.3 9.6 0.00 0.00 0.00 47 1007.8
20260509061555 57 86 5.2 9.6 0.00 0.00 0.00 46 1007.8
20260509060037 57 94 5.2 9.6 0.00 0.00 0.00 45 1007.7
20260509054548 58 88 5.2 11.3 0.00 0.00 0.00 44 1007.7
20260509053052 58 360 7.0 12.2 0.00 0.00 0.00 43 1007.5
20260509051536 58 49 7.8 13.0 0.00 0.00 0.00 41 1007.2
20260509050036 59 5 6.1 9.6 0.00 0.00 0.00 39 1007.0
20260509044543 59 355 3.5 6.1 0.00 0.00 0.00 35 1006.7
20260509043035 60 337 3.5 7.0 0.00 0.00 0.00 32 1006.4
20260509041535 61 335 2.6 10.4 0.00 0.00 0.00 30 1006.4
20260509040036 62 355 2.6 6.1 0.00 0.00 0.00 29 1006.2
20260509034536 62 360 2.6 7.0 0.00 0.00 0.00 29 1006.0
20260509033033 63 360 2.6 6.1 0.00 0.00 0.00 28 1005.8
20260509031534 64 327 4.3 10.4 0.00 0.00 0.00 26 1005.6
20260509030032 63 355 3.5 6.1 0.00 0.00 0.00 27 1005.2
20260509024535 65 355 3.5 7.8 0.00 0.00 0.00 26 1005.0
20260509023034 66 344 5.2 9.6 0.00 0.00 0.00 25 1004.9
20260509021531 67 360 6.1 9.6 0.00 0.00 0.00 25 1004.8
20260509020036 68 340 7.8 11.3 0.00 0.00 0.00 24 1004.8
20260509014534 69 355 7.0 11.3 0.00 0.00 0.00 24 1004.7
20260509013029 69 293 6.1 11.3 0.00 0.00 0.00 25 1004.6
20260509011529 70 319 6.1 14.8 0.00 0.00 0.00 26 1004.6
20260509010028 70 346 9.6 15.6 0.00 0.00 0.00 25 1004.5
20260509004536 71 320 5.2 14.8 0.00 0.00 0.00 25 1004.4
20260509003028 71 329 5.2 10.4 0.00 0.00 0.00 25 1004.3
20260509001527 72 338 5.2 13.9 0.00 0.00 0.00 24 1004.3
20260509000026 74 303 6.1 14.8 0.00 0.00 0.00 22 1004.2
20260508234526 74 295 7.8 14.8 0.00 0.00 0.00 20 1004.2
20260508233026 74 283 7.8 16.5 0.00 0.00 0.00 20 1004.1
20260508231525 75 329 8.7 13.9 0.00 0.00 0.00 19 1004.1
20260508230023 75 304 7.8 17.4 0.00 0.00 0.00 18 1004.2